This is the latest recevied weather packets stored in our database for station/object DG4DAZ-6. If no packets are shown the sender has not sent any weather packets the latest 10 day(s).
| Time | Temp. | Humidity | Pressure | Rain* | Wind** | Luminosity | Snow |
|---|---|---|---|---|---|---|---|
| 1777286365 | 15.56° C | 41% | 1022.6 hPa | 0 mm | - | 572 W/m² | - |
| 1777285767 | 15.56° C | 44% | 1022.6 hPa | 0 mm | - | 680 W/m² | - |
| 1777285166 | 15° C | 46% | 1022.7 hPa | 0 mm | - | 648 W/m² | - |
| 1777284566 | 14.44° C | 44% | 1022.8 hPa | 0 mm | - | 540 W/m² | - |
| 1777283965 | 14.44° C | 41% | 1022.9 hPa | 0 mm | - | 576 W/m² | - |
| 1777283365 | 14.44° C | 45% | 1022.8 hPa | 0 mm | - | 563 W/m² | - |
| 1777282766 | 14.44° C | 45% | 1022.9 hPa | 0 mm | - | 496 W/m² | - |
| 1777282167 | 14.44° C | 44% | 1023 hPa | 0 mm | - | 518 W/m² | - |
| 1777281566 | 13.89° C | 46% | 1023 hPa | 0 mm | - | 508 W/m² | - |
| 1777280965 | 13.33° C | 48% | 1023.2 hPa | 0 mm | - | 605 W/m² | - |
| 1777280367 | 13.33° C | 45% | 1023.3 hPa | 0 mm | - | 523 W/m² | - |
| 1777279766 | 13.33° C | 45% | 1023.2 hPa | 0 mm | - | 507 W/m² | - |
| 1777279167 | 13.33° C | 46% | 1023.2 hPa | 0 mm | - | 509 W/m² | - |
| 1777278567 | 13.33° C | 47% | 1023.2 hPa | 0 mm | - | 513 W/m² | - |
| 1777277966 | 13.33° C | 49% | 1023.2 hPa | 0 mm | - | 479 W/m² | - |
| 1777277366 | 12.78° C | 50% | 1023.2 hPa | 0 mm | - | 452 W/m² | - |
| 1777276765 | 12.22° C | 50% | 1023.3 hPa | 0 mm | - | 481 W/m² | - |
| 1777276167 | 12.22° C | 52% | 1023.4 hPa | 0 mm | - | 394 W/m² | - |
| 1777275566 | 12.22° C | 51% | 1023.3 hPa | 0 mm | - | 364 W/m² | - |
| 1777274965 | 12.22° C | 50% | 1023.4 hPa | 0 mm | - | 424 W/m² | - |
| 1777274366 | 11.67° C | 54% | 1023.4 hPa | 0 mm | - | 432 W/m² | - |
| 1777273766 | 11.11° C | 54% | 1023.4 hPa | 0 mm | - | 374 W/m² | - |
| 1777273165 | 10.56° C | 59% | 1023.4 hPa | 0 mm | - | 287 W/m² | - |
| 1777272567 | 10.56° C | 59% | 1023.5 hPa | 0 mm | - | 256 W/m² | - |
| 1777271966 | 10° C | 61% | 1023.5 hPa | 0 mm | - | 247 W/m² | - |
* Rain latest hour (hover to see other rain measurements)
** Current wind speed in m/s (hover to see current wind gust speed)